Time,TemperatureF,DewpointF,PressureIn,WindDirection,WindDirectionDegrees,WindSpeedMPH,WindSpeedGustMPH,Humidity,HourlyPrecipIn,Conditions,Clouds,dailyrainin,SolarRadiationWatts/m^2,SoftwareType,DateUTC
2013-09-20 00:22:00,59.0,30.0,-100.00,East,101,1.0,4.0,33,0.00,,,0.00,0.000000,,2013-09-20 07:22:00,
2013-09-20 00:32:00,59.0,30.0,-100.00,East,101,1.0,4.0,33,0.00,,,0.00,0.000000,,2013-09-20 07:32:00,
2013-09-20 00:42:00,59.0,30.0,-100.00,East,101,1.0,4.0,33,0.00,,,0.00,0.000000,,2013-09-20 07:42:00,
2013-09-20 00:52:00,59.0,30.0,-100.00,East,101,1.0,4.0,33,0.00,,,0.00,0.000000,,2013-09-20 07:52:00,
2013-09-20 01:22:00,61.0,30.0,-100.00,East,98,0.0,6.0,31,0.00,,,0.00,0.000000,,2013-09-20 08:22:00,
2013-09-20 01:32:00,61.0,30.0,-100.00,East,98,0.0,6.0,31,0.00,,,0.00,0.000000,,2013-09-20 08:32:00,
2013-09-20 01:42:00,61.0,30.0,-100.00,East,98,0.0,6.0,31,0.00,,,0.00,0.000000,,2013-09-20 08:42:00,
2013-09-20 01:52:00,61.0,30.0,-100.00,East,98,0.0,6.0,31,0.00,,,0.00,0.000000,,2013-09-20 08:52:00,
2013-09-20 02:22:00,58.0,33.0,-100.00,East,99,1.0,6.0,38,0.00,,,0.00,0.000000,,2013-09-20 09:22:00,
2013-09-20 02:33:00,58.0,33.0,-100.00,East,99,1.0,6.0,38,0.00,,,0.00,0.000000,,2013-09-20 09:33:00,
2013-09-20 02:43:00,58.0,33.0,-100.00,East,99,1.0,6.0,38,0.00,,,0.00,0.000000,,2013-09-20 09:43:00,
2013-09-20 02:53:00,58.0,33.0,-100.00,East,99,1.0,6.0,38,0.00,,,0.00,0.000000,,2013-09-20 09:53:00,
2013-09-20 03:23:00,55.0,31.0,-100.00,East,91,0.0,5.0,39,0.00,,,0.00,0.000000,,2013-09-20 10:23:00,
2013-09-20 03:32:00,55.0,31.0,-100.00,East,91,0.0,5.0,39,0.00,,,0.00,0.000000,,2013-09-20 10:32:00,
2013-09-20 03:42:00,55.0,31.0,-100.00,East,91,0.0,5.0,39,0.00,,,0.00,0.000000,,2013-09-20 10:42:00,
2013-09-20 03:53:00,55.0,31.0,-100.00,East,91,0.0,5.0,39,0.00,,,0.00,0.000000,,2013-09-20 10:53:00,
2013-09-20 04:23:00,58.0,27.0,-100.00,East,80,0.0,5.0,30,0.00,,,0.00,0.000000,,2013-09-20 11:23:00,
2013-09-20 04:33:00,58.0,27.0,-100.00,East,80,0.0,5.0,30,0.00,,,0.00,0.000000,,2013-09-20 11:33:00,
2013-09-20 04:42:00,58.0,27.0,-100.00,East,80,0.0,5.0,30,0.00,,,0.00,0.000000,,2013-09-20 11:42:00,
2013-09-20 04:52:00,58.0,27.0,-100.00,East,80,0.0,5.0,30,0.00,,,0.00,0.000000,,2013-09-20 11:52:00,
2013-09-20 05:42:00,65.0,24.0,-100.00,ESE,115,3.0,8.0,21,0.00,,,0.00,0.000000,,2013-09-20 12:42:00,
2013-09-20 05:52:00,65.0,24.0,-100.00,ESE,115,3.0,8.0,21,0.00,,,0.00,0.000000,,2013-09-20 12:52:00,
2013-09-20 06:21:00,57.0,24.0,-100.00,East,91,0.0,9.0,28,0.00,,,0.00,0.000000,,2013-09-20 13:21:00,
2013-09-20 06:32:00,57.0,24.0,-100.00,East,91,0.0,9.0,28,0.00,,,0.00,0.000000,,2013-09-20 13:32:00,
2013-09-20 07:21:00,60.0,26.0,-100.00,East,95,1.0,5.0,27,0.00,,,0.00,2.000000,,2013-09-20 14:21:00,
2013-09-20 07:32:00,60.0,26.0,-100.00,East,95,1.0,5.0,27,0.00,,,0.00,2.000000,,2013-09-20 14:32:00,
2013-09-20 07:42:00,60.0,26.0,-100.00,East,95,1.0,5.0,27,0.00,,,0.00,2.000000,,2013-09-20 14:42:00,
2013-09-20 07:52:00,60.0,26.0,-100.00,East,95,1.0,5.0,27,0.00,,,0.00,2.000000,,2013-09-20 14:52:00,
2013-09-20 08:21:00,62.0,29.0,-100.00,East,100,0.0,6.0,28,0.00,,,0.00,23.000000,,2013-09-20 15:21:00,
2013-09-20 08:33:00,62.0,29.0,-100.00,East,100,0.0,6.0,28,0.00,,,0.00,23.000000,,2013-09-20 15:33:00,
2013-09-20 08:44:00,62.0,29.0,-100.00,East,100,0.0,6.0,28,0.00,,,0.00,23.000000,,2013-09-20 15:44:00,
2013-09-20 08:53:00,62.0,29.0,-100.00,East,100,0.0,6.0,28,0.00,,,0.00,23.000000,,2013-09-20 15:53:00,
2013-09-20 11:22:00,82.0,43.0,-100.00,West,280,3.0,12.0,25,-99.99,,,0.00,775.000000,,2013-09-20 18:22:00,
2013-09-20 11:32:00,82.0,43.0,-100.00,West,280,3.0,12.0,25,-99.99,,,0.00,775.000000,,2013-09-20 18:32:00,
2013-09-20 12:42:00,86.0,43.0,-100.00,East,96,2.0,14.0,22,0.00,,,0.00,940.000000,,2013-09-20 19:42:00,
2013-09-20 12:52:00,86.0,43.0,-100.00,East,96,2.0,14.0,22,0.00,,,0.00,940.000000,,2013-09-20 19:52:00,
2013-09-20 13:22:00,89.0,41.0,-100.00,WSW,244,5.0,9.0,19,0.00,,,0.00,1035.000000,,2013-09-20 20:22:00,
2013-09-20 13:32:00,89.0,41.0,-100.00,WSW,244,5.0,9.0,19,0.00,,,0.00,1035.000000,,2013-09-20 20:32:00,
2013-09-20 13:42:00,89.0,41.0,-100.00,WSW,244,5.0,9.0,19,0.00,,,0.00,1035.000000,,2013-09-20 20:42:00,
2013-09-20 13:52:00,89.0,41.0,-100.00,WSW,244,5.0,9.0,19,0.00,,,0.00,1035.000000,,2013-09-20 20:52:00,
2013-09-20 14:21:00,87.0,44.0,-100.00,ESE,108,5.0,12.0,22,0.00,,,0.00,1011.000000,,2013-09-20 21:21:00,
2013-09-20 14:34:00,87.0,44.0,-100.00,ESE,108,5.0,12.0,22,0.00,,,0.00,1011.000000,,2013-09-20 21:34:00,
2013-09-20 14:44:00,87.0,44.0,-100.00,ESE,108,5.0,12.0,22,0.00,,,0.00,1011.000000,,2013-09-20 21:44:00,
2013-09-20 14:54:00,87.0,44.0,-100.00,ESE,108,5.0,12.0,22,0.00,,,0.00,1011.000000,,2013-09-20 21:54:00,
2013-09-20 15:23:00,88.0,43.0,-100.00,ENE,76,4.0,13.0,21,0.00,,,0.00,928.000000,,2013-09-20 22:23:00,
2013-09-20 15:33:00,88.0,43.0,-100.00,ENE,76,4.0,13.0,21,0.00,,,0.00,928.000000,,2013-09-20 22:33:00,
2013-09-20 15:43:00,88.0,43.0,-100.00,ENE,76,4.0,13.0,21,0.00,,,0.00,928.000000,,2013-09-20 22:43:00,
2013-09-20 15:53:00,88.0,43.0,-100.00,ENE,76,4.0,13.0,21,0.00,,,0.00,928.000000,,2013-09-20 22:53:00,
2013-09-20 16:22:00,87.0,37.0,-100.00,West,261,5.0,12.0,17,0.00,,,0.00,784.000000,,2013-09-20 23:22:00,
2013-09-20 16:34:00,87.0,37.0,-100.00,West,261,5.0,12.0,17,0.00,,,0.00,784.000000,,2013-09-20 23:34:00,
2013-09-20 16:42:00,87.0,37.0,-100.00,West,261,5.0,12.0,17,0.00,,,0.00,784.000000,,2013-09-20 23:42:00,
2013-09-20 16:53:00,87.0,37.0,-100.00,West,261,5.0,12.0,17,0.00,,,0.00,784.000000,,2013-09-20 23:53:00,
2013-09-20 17:21:00,84.0,39.0,-100.00,ESE,105,4.0,11.0,20,0.00,,,0.00,570.000000,,2013-09-21 00:21:00,
2013-09-20 17:32:00,84.0,39.0,-100.00,ESE,105,4.0,11.0,20,0.00,,,0.00,570.000000,,2013-09-21 00:32:00,
2013-09-20 17:42:00,84.0,39.0,-100.00,ESE,105,4.0,11.0,20,0.00,,,0.00,570.000000,,2013-09-21 00:42:00,
2013-09-20 17:52:00,84.0,39.0,-100.00,ESE,105,4.0,11.0,20,0.00,,,0.00,570.000000,,2013-09-21 00:52:00,
2013-09-20 18:22:00,80.0,41.0,-100.00,SW,233,5.0,11.0,25,0.00,,,0.00,323.000000,,2013-09-21 01:22:00,
2013-09-20 18:32:00,80.0,41.0,-100.00,SW,233,5.0,11.0,25,0.00,,,0.00,323.000000,,2013-09-21 01:32:00,
2013-09-20 18:42:00,80.0,41.0,-100.00,SW,233,5.0,11.0,25,0.00,,,0.00,323.000000,,2013-09-21 01:42:00,
2013-09-20 18:52:00,80.0,41.0,-100.00,SW,233,5.0,11.0,25,0.00,,,0.00,323.000000,,2013-09-21 01:52:00,
2013-09-20 19:22:00,71.0,41.0,-100.00,WSW,239,0.0,10.0,34,0.00,,,0.00,66.000000,,2013-09-21 02:22:00,
2013-09-20 19:32:00,71.0,41.0,-100.00,WSW,239,0.0,10.0,34,0.00,,,0.00,66.000000,,2013-09-21 02:32:00,
2013-09-20 19:42:00,71.0,41.0,-100.00,WSW,239,0.0,10.0,34,0.00,,,0.00,66.000000,,2013-09-21 02:42:00,
2013-09-20 19:52:00,71.0,41.0,-100.00,WSW,239,0.0,10.0,34,0.00,,,0.00,66.000000,,2013-09-21 02:52:00,
2013-09-20 20:22:00,64.0,40.0,-100.00,ESE,102,0.0,10.0,41,0.00,,,0.00,0.000000,,2013-09-21 03:22:00,
2013-09-20 20:34:00,64.0,40.0,-100.00,ESE,102,0.0,10.0,41,0.00,,,0.00,0.000000,,2013-09-21 03:34:00,
2013-09-20 20:44:00,64.0,40.0,-100.00,ESE,102,0.0,10.0,41,0.00,,,0.00,0.000000,,2013-09-21 03:44:00,
2013-09-20 20:54:00,64.0,40.0,-100.00,ESE,102,0.0,10.0,41,0.00,,,0.00,0.000000,,2013-09-21 03:54:00,
2013-09-20 21:24:00,63.0,40.0,-100.00,East,101,1.0,5.0,42,0.00,,,0.00,0.000000,,2013-09-21 04:24:00,
2013-09-20 21:33:00,63.0,40.0,-100.00,East,101,1.0,5.0,42,0.00,,,0.00,0.000000,,2013-09-21 04:33:00,
2013-09-20 21:43:00,63.0,40.0,-100.00,East,101,1.0,5.0,42,0.00,,,0.00,0.000000,,2013-09-21 04:43:00,
2013-09-20 21:54:00,63.0,40.0,-100.00,East,101,1.0,5.0,42,0.00,,,0.00,0.000000,,2013-09-21 04:54:00,
2013-09-20 22:23:00,63.0,42.0,-100.00,East,85,0.0,6.0,46,0.00,,,0.00,0.000000,,2013-09-21 05:23:00,
2013-09-20 22:34:00,63.0,42.0,-100.00,East,85,0.0,6.0,46,0.00,,,0.00,0.000000,,2013-09-21 05:34:00,
2013-09-20 22:43:00,63.0,42.0,-100.00,East,85,0.0,6.0,46,0.00,,,0.00,0.000000,,2013-09-21 05:43:00,
2013-09-20 22:52:00,63.0,42.0,-100.00,East,85,0.0,6.0,46,0.00,,,0.00,0.000000,,2013-09-21 05:52:00,
2013-09-20 23:22:00,61.0,42.0,-100.00,SE,131,0.0,5.0,50,0.00,,,0.00,0.000000,,2013-09-21 06:22:00,
2013-09-20 23:32:00,61.0,42.0,-100.00,SE,131,0.0,5.0,50,0.00,,,0.00,0.000000,,2013-09-21 06:32:00,
2013-09-20 23:42:00,61.0,42.0,-100.00,SE,131,0.0,5.0,50,0.00,,,0.00,0.000000,,2013-09-21 06:42:00,
2013-09-20 23:52:00,61.0,42.0,-100.00,SE,131,0.0,5.0,50,0.00,,,0.00,0.000000,,2013-09-21 06:52:00,